BCS11AY LEGE-LQSA

Flight info

Callsign BCS11AY
Flight time 1h 58m
Altitude 28000
Route BGR L110 DIBER/N0450F400 UN870 SOSUR DCT NETUP DCT STP Y15 USANO DCT UNITA DCT BEROK DCT IBENI/N0450F390 DCT SAL DCT VRANA
Aircraft B752/M-SDE2E3FGHIJ3J4J7RWXY/LB1

Departure

Time 2026-04-27 13:32
Airport Girona-Costa Brava Airport (LEGE)

Arrival

Time 2026-04-27 15:30
Airport Sarajevo International Airport (LQSA)
Time Latitude Longitude Altitude Speed Heading
2026-04-27 12:50 41.89681 2.76406 427 ft 0 kts 106°
2026-04-27 13:22 41.89682 2.76402 426 ft 2 kts 106°
2026-04-27 13:23 41.89685 2.76384 426 ft 1 kts 106°
2026-04-27 13:23 41.89688 2.76371 426 ft 2 kts 93°
2026-04-27 13:23 41.89685 2.76351 426 ft 2 kts 66°
2026-04-27 13:23 41.89677 2.76335 426 ft 2 kts 41°
2026-04-27 13:24 41.89666 2.76325 426 ft 0 kts 19°
2026-04-27 13:24 41.89659 2.76323 426 ft 1 kts 15°
2026-04-27 13:24 41.89658 2.76322 426 ft 0 kts 15°
2026-04-27 13:26 41.89668 2.76326 426 ft 3 kts 15°
2026-04-27 13:26 41.89698 2.76337 426 ft 5 kts 15°
2026-04-27 13:27 41.89735 2.76350 427 ft 6 kts 15°
2026-04-27 13:27 41.89778 2.76366 428 ft 6 kts 15°
2026-04-27 13:27 41.89822 2.76381 429 ft 6 kts 11°
2026-04-27 13:27 41.89872 2.76369 430 ft 10 kts 321°
2026-04-27 13:28 41.89910 2.76248 429 ft 14 kts 297°
2026-04-27 13:28 41.90004 2.76250 431 ft 17 kts 16°
2026-04-27 13:28 41.90129 2.76296 435 ft 20 kts 15°
2026-04-27 13:28 41.90286 2.76356 438 ft 25 kts 16°
2026-04-27 13:29 41.90470 2.76426 444 ft 29 kts 15°
2026-04-27 13:29 41.90664 2.76499 454 ft 27 kts 14°
2026-04-27 13:29 41.90840 2.76566 460 ft 25 kts 16°
2026-04-27 13:29 41.91000 2.76625 465 ft 23 kts 15°
2026-04-27 13:30 41.91157 2.76684 464 ft 23 kts 18°
2026-04-27 13:30 41.91295 2.76741 461 ft 18 kts 14°
2026-04-27 13:30 41.91413 2.76756 461 ft 11 kts 337°
2026-04-27 13:30 41.91459 2.76726 461 ft 6 kts 331°
2026-04-27 13:31 41.91503 2.76690 463 ft 11 kts 327°
2026-04-27 13:31 41.91496 2.76583 469 ft 19 kts 193°
2026-04-27 13:31 41.91327 2.76521 472 ft 35 kts 196°
2026-04-27 13:31 41.90826 2.76324 461 ft 123 kts 195°
2026-04-27 13:32 41.89778 2.75905 837 ft 175 kts 197°
2026-04-27 13:32 41.88777 2.75508 2348 ft 140 kts 194°
2026-04-27 13:32 41.87991 2.75235 2973 ft 115 kts 194°
2026-04-27 13:32 41.87106 2.74921 2841 ft 151 kts 194°
2026-04-27 13:33 41.86074 2.74543 3221 ft 152 kts 195°
2026-04-27 13:33 41.85094 2.74167 3716 ft 143 kts 195°
2026-04-27 13:33 41.84128 2.73799 4284 ft 149 kts 195°
2026-04-27 13:33 41.83140 2.73571 4762 ft 147 kts 167°
2026-04-27 13:34 41.82231 2.74315 5306 ft 174 kts 123°
2026-04-27 13:34 41.81901 2.75978 5803 ft 207 kts 86°
2026-04-27 13:34 41.82061 2.77984 6225 ft 220 kts 83°
2026-04-27 13:34 41.82214 2.80043 6515 ft 222 kts 83°
2026-04-27 13:35 41.82367 2.82104 6822 ft 229 kts 83°
2026-04-27 13:35 41.82539 2.84398 7248 ft 267 kts 83°
2026-04-27 13:35 41.82723 2.86883 7769 ft 267 kts 83°
2026-04-27 13:35 41.82908 2.89375 8312 ft 272 kts 83°
2026-04-27 13:36 41.83094 2.91889 8844 ft 275 kts 83°
2026-04-27 13:36 41.83600 2.94342 9401 ft 275 kts 61°
2026-04-27 13:36 41.84534 2.96597 9962 ft 279 kts 60°
2026-04-27 13:36 41.85487 2.98904 10515 ft 298 kts 59°
2026-04-27 13:37 41.86517 3.01360 11059 ft 299 kts 59°
2026-04-27 13:37 41.87511 3.03723 11592 ft 299 kts 59°
2026-04-27 13:37 41.88599 3.06290 12189 ft 333 kts 59°
2026-04-27 13:37 41.89803 3.09130 12755 ft 362 kts 59°
2026-04-27 13:38 41.91045 3.12062 13287 ft 367 kts 59°
2026-04-27 13:38 41.92320 3.15072 13677 ft 383 kts 59°
2026-04-27 13:38 41.93641 3.18196 15086 ft 387 kts 60°
2026-04-27 13:38 41.94732 3.21477 16393 ft 395 kts 73°
2026-04-27 13:39 41.95245 3.25082 17652 ft 401 kts 81°
2026-04-27 13:39 41.95665 3.28747 18843 ft 408 kts 80°
2026-04-27 13:39 41.96101 3.32537 20035 ft 416 kts 80°
2026-04-27 13:39 41.96536 3.36348 21198 ft 422 kts 80°
2026-04-27 13:40 41.96979 3.40245 22262 ft 429 kts 80°
2026-04-27 13:40 41.97428 3.44213 23340 ft 435 kts 80°
2026-04-27 13:40 41.97882 3.48240 24374 ft 440 kts 79°
2026-04-27 13:40 41.98334 3.52271 25644 ft 438 kts 79°
2026-04-27 13:41 41.98786 3.56305 26867 ft 435 kts 79°
2026-04-27 13:41 41.99229 3.60282 27950 ft 434 kts 79°
2026-04-27 13:41 41.99668 3.64232 28073 ft 430 kts 79°
2026-04-27 13:41 42.00107 3.68196 28072 ft 426 kts 80°
2026-04-27 13:42 42.00973 3.76038 28080 ft 429 kts 79°
2026-04-27 13:42 42.01841 3.83957 28078 ft 429 kts 79°
2026-04-27 13:43 42.02701 3.91863 28082 ft 427 kts 79°
2026-04-27 13:43 42.03554 3.99752 28086 ft 427 kts 79°
2026-04-27 13:44 42.04400 4.07620 28088 ft 426 kts 79°
2026-04-27 13:44 42.05235 4.15451 28087 ft 426 kts 79°
2026-04-27 13:45 42.06073 4.23350 28088 ft 427 kts 79°
2026-04-27 13:45 42.06905 4.31258 28089 ft 428 kts 79°
2026-04-27 13:46 42.08328 4.38900 28095 ft 420 kts 63°
2026-04-27 13:46 42.11546 4.45290 28103 ft 414 kts 43°
2026-04-27 13:47 42.15734 4.50629 28091 ft 413 kts 41°
2026-04-27 13:47 42.19941 4.55808 28093 ft 412 kts 40°
2026-04-27 13:48 42.24196 4.60984 28093 ft 412 kts 40°
2026-04-27 13:48 42.28473 4.66169 28091 ft 413 kts 40°
2026-04-27 13:49 42.32710 4.71306 28092 ft 412 kts 40°
2026-04-27 13:49 42.36968 4.76475 28095 ft 412 kts 40°
2026-04-27 13:50 42.41235 4.81663 28090 ft 411 kts 40°
2026-04-27 13:50 42.45493 4.86849 28093 ft 413 kts 40°
2026-04-27 13:51 42.49736 4.92030 28089 ft 411 kts 40°
2026-04-27 13:51 42.53949 4.97181 28090 ft 410 kts 40°
2026-04-27 13:52 42.57781 5.02921 28098 ft 415 kts 50°
2026-04-27 13:52 42.61328 5.09111 28089 ft 415 kts 50°
2026-04-27 13:53 42.66584 5.18375 28085 ft 414 kts 50°
2026-04-27 13:54 42.70082 5.24572 28094 ft 414 kts 50°
2026-04-27 13:54 42.73538 5.30713 28089 ft 406 kts 50°
2026-04-27 13:55 42.76976 5.36831 28092 ft 414 kts 50°
2026-04-27 13:55 42.80453 5.43035 28088 ft 413 kts 50°
2026-04-27 13:56 42.83916 5.49227 28086 ft 413 kts 51°
2026-04-27 13:56 42.87397 5.55464 28086 ft 413 kts 51°
2026-04-27 13:57 42.90862 5.61686 28088 ft 413 kts 50°
2026-04-27 13:57 42.94323 5.67914 28090 ft 412 kts 51°
2026-04-27 13:58 42.97768 5.74126 28087 ft 411 kts 51°
2026-04-27 13:58 43.01024 5.80557 28095 ft 414 kts 62°
2026-04-27 13:59 43.03142 5.87874 28088 ft 417 kts 67°
2026-04-27 13:59 43.05130 5.95285 28093 ft 416 kts 68°
2026-04-27 14:00 43.07085 6.02690 28091 ft 417 kts 68°
2026-04-27 14:00 43.09032 6.10126 28099 ft 417 kts 68°
2026-04-27 14:01 43.10981 6.17604 28108 ft 416 kts 68°
2026-04-27 14:01 43.12901 6.24997 28106 ft 416 kts 68°
2026-04-27 14:02 43.14834 6.32465 28102 ft 415 kts 68°
2026-04-27 14:02 43.16753 6.39900 28097 ft 415 kts 68°
2026-04-27 14:03 43.18666 6.47338 28090 ft 415 kts 68°
2026-04-27 14:03 43.20565 6.54748 28090 ft 416 kts 68°
2026-04-27 14:04 43.22974 6.61915 28095 ft 413 kts 54°
2026-04-27 14:04 43.26300 6.68309 28084 ft 412 kts 53°
2026-04-27 14:05 43.29636 6.74665 28086 ft 412 kts 53°
2026-04-27 14:05 43.32982 6.81027 28085 ft 413 kts 53°
2026-04-27 14:06 43.36341 6.87419 28087 ft 414 kts 53°
2026-04-27 14:06 43.39698 6.93815 28094 ft 414 kts 53°
2026-04-27 14:07 43.43059 7.00231 28096 ft 414 kts 53°
2026-04-27 14:07 43.46417 7.06654 28097 ft 414 kts 53°
2026-04-27 14:08 43.49767 7.13078 28101 ft 415 kts 53°
2026-04-27 14:08 43.53110 7.19502 28102 ft 415 kts 53°
2026-04-27 14:09 43.56479 7.25989 28100 ft 415 kts 53°
2026-04-27 14:09 43.59829 7.32455 28098 ft 416 kts 53°
2026-04-27 14:10 43.62852 7.39170 28105 ft 418 kts 63°
2026-04-27 14:10 43.65293 7.46502 28095 ft 419 kts 63°
2026-04-27 14:11 43.67697 7.53797 28086 ft 419 kts 64°
2026-04-27 14:11 43.70093 7.61123 28083 ft 420 kts 64°
2026-04-27 14:12 43.72483 7.68461 28080 ft 420 kts 64°
2026-04-27 14:12 43.74178 7.76162 28076 ft 422 kts 75°
2026-04-27 14:13 43.75507 7.84000 28075 ft 419 kts 75°
2026-04-27 14:13 43.76811 7.91837 28077 ft 419 kts 76°
2026-04-27 14:14 43.78099 7.99655 28081 ft 419 kts 75°
2026-04-27 14:14 43.79385 8.07509 28086 ft 420 kts 75°
2026-04-27 14:15 43.80667 8.15391 28085 ft 420 kts 75°
2026-04-27 14:15 43.81932 8.23197 28084 ft 420 kts 75°
2026-04-27 14:16 43.83206 8.31094 28079 ft 421 kts 76°
2026-04-27 14:16 43.84471 8.38976 28083 ft 420 kts 76°
2026-04-27 14:17 43.85726 8.46839 28083 ft 420 kts 76°
2026-04-27 14:17 43.86979 8.54717 28084 ft 421 kts 76°
2026-04-27 14:18 43.88230 8.62626 28082 ft 421 kts 75°
2026-04-27 14:18 43.89478 8.70550 28083 ft 421 kts 76°
2026-04-27 14:19 43.90717 8.78452 28084 ft 422 kts 76°
2026-04-27 14:19 43.91946 8.86338 28087 ft 421 kts 76°
2026-04-27 14:20 43.93183 8.94304 28087 ft 422 kts 76°
2026-04-27 14:20 43.94410 9.02238 28088 ft 422 kts 76°
2026-04-27 14:21 43.95767 9.10141 28088 ft 421 kts 75°
2026-04-27 14:21 43.97119 9.17998 28089 ft 421 kts 75°
2026-04-27 14:22 43.98472 9.25899 28088 ft 422 kts 75°
2026-04-27 14:22 43.99822 9.33818 28088 ft 422 kts 75°
2026-04-27 14:23 44.01157 9.41683 28089 ft 422 kts 75°
2026-04-27 14:23 44.02491 9.49584 28089 ft 422 kts 75°
2026-04-27 14:24 44.03795 9.57337 28089 ft 422 kts 75°
2026-04-27 14:24 44.05126 9.65291 28084 ft 423 kts 75°
2026-04-27 14:25 44.06453 9.73254 28086 ft 423 kts 75°
2026-04-27 14:25 44.07770 9.81194 28082 ft 424 kts 75°
2026-04-27 14:26 44.09086 9.89168 28082 ft 424 kts 75°
2026-04-27 14:26 44.10391 9.97111 28074 ft 424 kts 75°
2026-04-27 14:27 44.11701 10.05119 28078 ft 424 kts 75°
2026-04-27 14:27 44.12994 10.13064 28091 ft 424 kts 75°
2026-04-27 14:28 44.14292 10.21076 28105 ft 424 kts 75°
2026-04-27 14:28 44.15580 10.29066 28118 ft 425 kts 75°
2026-04-27 14:29 44.16391 10.37177 28127 ft 427 kts 89°
2026-04-27 14:29 44.16237 10.45400 28126 ft 427 kts 90°
2026-04-27 14:30 44.16033 10.53637 28126 ft 427 kts 90°
2026-04-27 14:30 44.15805 10.61873 28123 ft 428 kts 90°
2026-04-27 14:31 44.15563 10.70194 28115 ft 429 kts 91°
2026-04-27 14:31 44.15316 10.78408 28117 ft 428 kts 91°
2026-04-27 14:32 44.15060 10.86688 28115 ft 428 kts 91°
2026-04-27 14:32 44.14800 10.94943 28116 ft 428 kts 91°
2026-04-27 14:33 44.14535 11.03140 28122 ft 428 kts 91°
2026-04-27 14:33 44.14259 11.11452 28114 ft 429 kts 91°
2026-04-27 14:34 44.13981 11.19702 28114 ft 429 kts 91°
2026-04-27 14:34 44.13696 11.27951 28108 ft 428 kts 91°
2026-04-27 14:35 44.13405 11.36220 28102 ft 429 kts 91°
2026-04-27 14:35 44.13108 11.44459 28103 ft 429 kts 91°
2026-04-27 14:36 44.12803 11.52778 28101 ft 430 kts 91°
2026-04-27 14:36 44.12494 11.61048 28100 ft 430 kts 91°
2026-04-27 14:37 44.12179 11.69301 28096 ft 430 kts 91°
2026-04-27 14:37 44.11855 11.77628 28090 ft 430 kts 91°
2026-04-27 14:38 44.11527 11.85910 28088 ft 431 kts 91°
2026-04-27 14:38 44.11194 11.94195 28091 ft 431 kts 91°
2026-04-27 14:39 44.10854 12.02472 28085 ft 430 kts 91°
2026-04-27 14:39 44.10508 12.10742 28083 ft 430 kts 91°
2026-04-27 14:40 44.10155 12.19056 28088 ft 430 kts 91°
2026-04-27 14:40 44.09796 12.27344 28082 ft 431 kts 91°
2026-04-27 14:41 44.09434 12.35596 28081 ft 431 kts 91°
2026-04-27 14:41 44.09062 12.43914 28080 ft 430 kts 91°
2026-04-27 14:42 44.08688 12.52135 28077 ft 430 kts 91°
2026-04-27 14:42 44.08305 12.60449 28081 ft 429 kts 91°
2026-04-27 14:43 44.07918 12.68709 28077 ft 430 kts 92°
2026-04-27 14:43 44.07592 12.75556 28074 ft 430 kts 92°
2026-04-27 14:44 44.07126 12.85231 28076 ft 430 kts 92°
2026-04-27 14:44 44.06720 12.93481 28075 ft 430 kts 91°
2026-04-27 14:45 44.06310 13.01732 28074 ft 430 kts 91°
2026-04-27 14:45 44.05894 13.09963 28073 ft 428 kts 91°
2026-04-27 14:46 44.05471 13.18216 28073 ft 428 kts 91°
2026-04-27 14:46 44.05045 13.26429 28072 ft 428 kts 91°
2026-04-27 14:47 44.04611 13.34668 28073 ft 428 kts 91°
2026-04-27 14:47 44.04171 13.42915 28072 ft 429 kts 91°
2026-04-27 14:48 44.03724 13.51162 28072 ft 429 kts 91°
2026-04-27 14:48 44.03045 13.63489 28073 ft 427 kts 91°
2026-04-27 14:49 44.02586 13.71697 28072 ft 427 kts 92°
2026-04-27 14:49 44.02121 13.79894 28072 ft 426 kts 92°
2026-04-27 14:50 44.01654 13.88052 28073 ft 427 kts 92°
2026-04-27 14:50 44.01187 13.96247 28071 ft 426 kts 92°
2026-04-27 14:51 44.00727 14.04380 28073 ft 424 kts 91°
2026-04-27 14:51 44.00341 14.11158 28073 ft 425 kts 91°
2026-04-27 14:52 43.99793 14.20646 28072 ft 423 kts 91°
2026-04-27 14:52 43.99316 14.28773 28072 ft 423 kts 91°
2026-04-27 14:53 43.98837 14.36874 28073 ft 424 kts 91°
2026-04-27 14:53 43.98349 14.44997 28073 ft 424 kts 92°
2026-04-27 14:54 43.97855 14.53127 28074 ft 425 kts 91°
2026-04-27 14:54 43.97351 14.61313 28074 ft 426 kts 91°
2026-04-27 14:55 43.96845 14.69468 28073 ft 425 kts 92°
2026-04-27 14:55 43.96333 14.77605 28073 ft 424 kts 92°
2026-04-27 14:56 43.95814 14.85760 28074 ft 425 kts 92°
2026-04-27 14:56 43.95292 14.93869 28075 ft 425 kts 92°
2026-04-27 14:57 43.94762 15.02022 28077 ft 426 kts 92°
2026-04-27 14:57 43.94222 15.10217 28078 ft 427 kts 92°
2026-04-27 14:58 43.93679 15.18371 28078 ft 426 kts 92°
2026-04-27 14:58 43.93124 15.26568 28078 ft 426 kts 92°
2026-04-27 14:59 43.92569 15.34684 28080 ft 425 kts 92°
2026-04-27 14:59 43.92005 15.42841 28083 ft 425 kts 92°
2026-04-27 15:00 43.91437 15.50968 28082 ft 425 kts 92°
2026-04-27 15:00 43.90863 15.59093 28085 ft 426 kts 92°
2026-04-27 15:01 43.90284 15.67213 28084 ft 425 kts 92°
2026-04-27 15:01 43.89697 15.75369 28078 ft 425 kts 92°
2026-04-27 15:02 43.89104 15.83510 28082 ft 426 kts 92°
2026-04-27 15:02 43.88508 15.91631 28082 ft 427 kts 92°
2026-04-27 15:03 43.87903 15.99785 28088 ft 427 kts 92°
2026-04-27 15:03 43.87290 16.07958 28090 ft 428 kts 92°
2026-04-27 15:04 43.86673 16.16107 28094 ft 429 kts 92°
2026-04-27 15:04 43.86046 16.24323 28097 ft 428 kts 92°
2026-04-27 15:05 43.85418 16.32462 28106 ft 428 kts 92°
2026-04-27 15:05 43.84780 16.40658 28118 ft 428 kts 92°
2026-04-27 15:06 43.84136 16.48841 28133 ft 429 kts 92°
2026-04-27 15:06 43.83490 16.56996 28137 ft 430 kts 92°
2026-04-27 15:07 43.82834 16.65185 28130 ft 428 kts 93°
2026-04-27 15:07 43.82175 16.73345 28124 ft 427 kts 93°
2026-04-27 15:08 43.81509 16.81519 28127 ft 429 kts 93°
2026-04-27 15:08 43.80836 16.89699 28138 ft 430 kts 93°
2026-04-27 15:09 43.80493 16.93849 27928 ft 435 kts 93°
2026-04-27 15:09 43.80149 16.98006 27428 ft 443 kts 93°
2026-04-27 15:09 43.79792 17.02274 26919 ft 444 kts 94°
2026-04-27 15:09 43.79441 17.06459 26422 ft 443 kts 94°
2026-04-27 15:10 43.79085 17.10668 25928 ft 444 kts 94°
2026-04-27 15:10 43.78729 17.14875 25438 ft 443 kts 94°
2026-04-27 15:10 43.78367 17.19116 24934 ft 438 kts 94°
2026-04-27 15:10 43.78014 17.23246 24444 ft 434 kts 94°
2026-04-27 15:11 43.77660 17.27382 23963 ft 433 kts 94°
2026-04-27 15:11 43.77308 17.31465 23498 ft 433 kts 94°
2026-04-27 15:11 43.76949 17.35612 23031 ft 431 kts 94°
2026-04-27 15:11 43.76596 17.39688 22572 ft 427 kts 94°
2026-04-27 15:12 43.76469 17.43744 22115 ft 421 kts 84°
2026-04-27 15:12 43.76856 17.47705 21670 ft 415 kts 73°
2026-04-27 15:12 43.77742 17.51450 21215 ft 409 kts 63°
2026-04-27 15:12 43.79093 17.54894 20599 ft 405 kts 52°
2026-04-27 15:13 43.80848 17.57854 20070 ft 395 kts 41°
2026-04-27 15:13 43.82851 17.60311 19564 ft 388 kts 36°
2026-04-27 15:13 43.84944 17.62630 19085 ft 384 kts 34°
2026-04-27 15:13 43.87073 17.64873 18634 ft 382 kts 33°
2026-04-27 15:14 43.89204 17.67045 18209 ft 381 kts 33°
2026-04-27 15:14 43.91349 17.69190 17775 ft 380 kts 33°
2026-04-27 15:14 43.93448 17.71268 17545 ft 357 kts 33°
2026-04-27 15:14 43.95352 17.73149 17590 ft 320 kts 32°
2026-04-27 15:15 43.97157 17.74918 17620 ft 321 kts 32°
2026-04-27 15:15 43.99025 17.76738 16968 ft 333 kts 32°
2026-04-27 15:15 44.00873 17.78547 16154 ft 323 kts 32°
2026-04-27 15:15 44.02623 17.80377 15345 ft 316 kts 41°
2026-04-27 15:16 44.03964 17.82784 14564 ft 314 kts 61°
2026-04-27 15:16 44.04659 17.85610 13803 ft 316 kts 80°
2026-04-27 15:16 44.04664 17.88637 13030 ft 315 kts 99°
2026-04-27 15:16 44.04149 17.91553 12240 ft 308 kts 105°
2026-04-27 15:17 44.03561 17.94348 11441 ft 302 kts 104°
2026-04-27 15:17 44.03380 17.97164 10678 ft 295 kts 80°
2026-04-27 15:17 44.04071 17.99769 9937 ft 287 kts 54°
2026-04-27 15:17 44.05488 18.01632 9210 ft 282 kts 28°
2026-04-27 15:18 44.07342 18.02397 8486 ft 277 kts
2026-04-27 15:18 44.09206 18.02103 7756 ft 274 kts 351°
2026-04-27 15:18 44.11095 18.01811 7151 ft 264 kts 356°
2026-04-27 15:18 44.12833 18.01679 7113 ft 244 kts 358°
2026-04-27 15:19 44.14583 18.01613 7141 ft 256 kts 359°
2026-04-27 15:19 44.16376 18.01597 7162 ft 258 kts
2026-04-27 15:19 44.18135 18.01773 7128 ft 251 kts 17°
2026-04-27 15:19 44.19586 18.02956 7154 ft 242 kts 48°
2026-04-27 15:20 44.20366 18.04999 7142 ft 247 kts 78°
2026-04-27 15:20 44.20311 18.07416 6848 ft 255 kts 108°
2026-04-27 15:20 44.19396 18.09500 6441 ft 252 kts 138°
2026-04-27 15:20 44.17901 18.10666 6068 ft 245 kts 160°
2026-04-27 15:21 44.16399 18.11640 5837 ft 235 kts 147°
2026-04-27 15:21 44.14922 18.12407 5872 ft 226 kts 177°
2026-04-27 15:21 44.13366 18.12100 5805 ft 229 kts 193°
2026-04-27 15:21 44.11824 18.11624 5655 ft 227 kts 191°
2026-04-27 15:22 44.10337 18.11018 5522 ft 222 kts 212°
2026-04-27 15:22 44.09110 18.09723 5436 ft 222 kts 217°
2026-04-27 15:22 44.07837 18.08523 5430 ft 223 kts 211°
2026-04-27 15:22 44.06477 18.07464 5423 ft 224 kts 207°
2026-04-27 15:23 44.05071 18.06531 5419 ft 223 kts 203°
2026-04-27 15:23 44.03635 18.05725 5418 ft 222 kts 200°
2026-04-27 15:23 44.02181 18.05037 5420 ft 223 kts 197°
2026-04-27 15:23 44.00685 18.04454 5420 ft 222 kts 194°
2026-04-27 15:24 43.99199 18.03993 5410 ft 214 kts 191°
2026-04-27 15:24 43.97757 18.03654 5421 ft 209 kts 188°
2026-04-27 15:24 43.96307 18.03412 5433 ft 212 kts 185°
2026-04-27 15:24 43.94814 18.03278 5425 ft 213 kts 177°
2026-04-27 15:25 43.93431 18.03885 5457 ft 211 kts 140°
2026-04-27 15:25 43.92540 18.05483 5483 ft 212 kts 116°
2026-04-27 15:25 43.91933 18.07315 5454 ft 211 kts 113°
2026-04-27 15:25 43.91307 18.09163 5277 ft 212 kts 115°
2026-04-27 15:26 43.90662 18.11000 5066 ft 209 kts 114°
2026-04-27 15:26 43.90037 18.12809 4782 ft 208 kts 115°
2026-04-27 15:26 43.89400 18.14571 4526 ft 202 kts 116°
2026-04-27 15:26 43.88778 18.16257 4228 ft 190 kts 115°
2026-04-27 15:27 43.88214 18.17776 4007 ft 165 kts 115°
2026-04-27 15:27 43.87719 18.19106 3759 ft 147 kts 115°
2026-04-27 15:27 43.87277 18.20291 3550 ft 133 kts 114°
2026-04-27 15:27 43.86856 18.21419 3361 ft 130 kts 114°
2026-04-27 15:28 43.86439 18.22540 3208 ft 135 kts 114°
2026-04-27 15:28 43.86000 18.23717 3017 ft 136 kts 115°
2026-04-27 15:28 43.85574 18.24855 2830 ft 134 kts 115°
2026-04-27 15:28 43.85142 18.26004 2656 ft 134 kts 115°
2026-04-27 15:29 43.84718 18.27136 2470 ft 133 kts 114°
2026-04-27 15:29 43.84272 18.28282 2252 ft 136 kts 118°
2026-04-27 15:29 43.83814 18.29409 2080 ft 135 kts 115°
2026-04-27 15:29 43.83403 18.30568 1904 ft 135 kts 111°
2026-04-27 15:30 43.82994 18.31717 1738 ft 134 kts 117°
2026-04-27 15:30 43.82623 18.32703 1712 ft 77 kts 117°
2026-04-27 15:30 43.82505 18.33085 1716 ft 24 kts 89°
2026-04-27 15:30 43.82527 18.33221 1719 ft 9 kts 68°
2026-04-27 15:31 43.82550 18.33300 1720 ft 8 kts 71°
2026-04-27 15:31 43.82558 18.33370 1722 ft 4 kts 94°
2026-04-27 15:31 43.82542 18.33409 1722 ft 7 kts 123°
2026-04-27 15:31 43.82513 18.33480 1724 ft 3 kts 116°
2026-04-27 15:32 43.82505 18.33515 1725 ft 2 kts 94°
2026-04-27 15:32 43.82510 18.33527 1725 ft 1 kts 34°
2026-04-27 15:32 43.82529 18.33539 1725 ft 4 kts 24°
2026-04-27 15:32 43.82551 18.33554 1725 ft 0 kts 26°
2026-04-27 15:33 43.82565 18.33563 1725 ft 2 kts 28°
2026-04-27 15:33 43.82567 18.33565 1725 ft 0 kts 27°